Cloud_Cover
100 100 100 100 100 100 100 100 100 95 22 18 20 20 16 56 7 0 0 0 0 0 0 5 4 10 5 84 26 4 4 2 1 0 0 0 0 0 6 20 95 0 0 0 0
100 100 100 100 100 100 100 100 100 46 27 17 25 27 36 44 4 0 0 0 0 0 4 4 31 87 59 65 36 4 8 0 0 0 0 0 0 4 29 75 80 1 0 0 0
100 100 100 100 100 100 100 84 54 65 28 22 26 31 18 56 0 0 0 0 0 2 5 6 85 70 38 6 31 10 3 0 0 0 0 0 0 51 6 26 5 0 0 0 0
100 100 100 100 100 99 50 84 100 100 57 25 22 24 0 12 0 0 0 0 0 0 3 5 5 56 4 21 13 20 4 0 3 2 43 0 1 9 4 15 4 10 20 93 3
100 79 4 0 0 0 0 64 100 99 48 24 10 4 3 0 0 0 0 0 0 0 4 3 5 22 26 45 5 5 5 5 2 4 12 10 3 3 0 0 60 99 14 64 100
0 0 0 0 0 2 8 77 48 38 33 21 4 0 7 0 0 0 0 0 0 0 0 2 5 5 57 2 63 1 2 0 5 5 5 4 0 4 1 2 72 100 100 94 67
0 3 13 15 24 18 20 21 40 42 22 9 0 0 0 0 0 0 0 0 0 0 0 0 4 35 5 0 4 16 4 5 5 0 4 1 0 3 10 97 100 29 95 100 100
31 23 18 12 24 29 42 68 73 24 1 0 0 0 0 0 0 0 0 0 0 0 0 0 5 10 5 4 4 5 4 5 8 3 1 4 0 2 5 100 100 24 96 100 60
84 52 33 20 33 40 56 94 8 0 0 0 0 0 0 0 0 0 0 0 0 0 0 20 55 11 0 3 24 38 30 30 50 7 21 5 1 5 3 100 89 100 99 100 98
100 82 51 40 31 42 89 1 0 0 0 0 0 0 0 0 0 0 0 0 0 0 2 2 5 5 4 5 36 5 71 12 54 27 22 5 0 5 5 5 5 80 100 99 100
100 100 64 32 30 29 43 0 0 0 0 0 0 0 0 0 0 0 0 0 0 0 1 0 5 5 5 1 46 5 24 91 95 5 31 5 1 2 4 25 10 4 100 80 100
100 100 76 24 15 23 1 0 0 0 0 0 0 0 0 0 0 0 0 0 0 0 0 0 4 5 4 2 7 5 96 82 97 100 91 0 5 5 0 4 57 5 12 89 54
100 100 67 92 1 0 0 0 0 0 0 0 0 0 0 0 0 0 0 0 0 0 0 0 2 5 0 94 34 24 48 9 9 95 94 2 0 1 1 16 34 44 10 92 97
100 76 41 93 0 0 0 0 0 0 0 0 0 0 0 0 0 0 0 0 0 0 0 0 0 3 0 8 5 95 90 94 99 45 15 4 4 5 48 85 100 19 8 100 100
88 42 50 93 23 0 0 0 0 0 0 0 0 0 0 0 0 0 0 0 0 0 0 0 0 0 0 4 96 6 72 6 2 2 0 0 24 40 5 56 19 7 26 100 100
21 8 84 18 26 2 0 0 0 0 0 0 0 0 0 0 0 0 0 0 0 0 0 0 0 0 0 0 3 84 100 100 8 14 4 2 4 50 4 52 8 31 31 100 69
0 2 100 11 0 0 0 0 0 0 0 0 0 0 0 0 0 0 0 0 0 0 0 0 0 0 0 1 25 100 100 100 100 92 4 15 4 80 5 46 40 53 41 82 12
0 43 3 4 0 0 0 0 0 0 0 0 0 0 0 0 0 0 0 0 0 0 0 0 0 0 0 1 59 98 100 100 100 37 7 15 4 5 5 2 54 78 28 1 19
12 0 0 0 0 0 0 0 0 0 0 0 0 0 0 0 0 0 0 0 0 0 0 0 0 0 0 16 90 100 100 100 61 4 0 2 5 5 5 9 18 0 0 5 5
80 1 0 0 0 0 0 0 0 0 0 0 0 0 0 0 0 0 0 0 0 0 0 0 0 0 0 9 34 21 98 84 100 100 5 4 4 4 6 92 67 1 5 28 86
0 0 0 0 0 0 0 0 0 0 0 0 0 0 0 0 0 0 0 0 0 0 0 0 0 0 0 0 29 100 88 42 1 5 5 1 1 0 0 5 61 30 2 63 5
0 0 0 0 0 0 0 0 0 2 5 5 0 0 0 0 0 0 0 0 0 0 0 0 0 0 0 0 1 5 3 3 0 0 0 2 0 0 0 61 100 68 5 60 23
0 0 0 0 0 0 0 0 0 0 0 5 5 5 0 0 0 0 0 0 0 0 0 0 0 0 0 0 0 0 0 0 0 1 0 23 44 47 2 1 100 100 49 37 5
4 0 0 0 0 0 1 0 0 0 2 19 5 0 0 0 0 0 0 0 0 0 0 0 0 0 0 0 0 0 2 5 5 2 0 44 99 12 0 4 80 100 83 4 5
28 2 5 5 9 5 4 5 5 0 0 0 0 0 0 0 0 0 0 0 0 0 0 0 0 0 0 0 0 0 6 28 5 5 4 13 23 31 0 5 46 100 74 5 50
31 97 6 5 5 49 36 5 0 0 0 0 0 5 5 0 0 0 0 0 0 0 0 0 0 0 5 0 0 0 3 1 5 5 5 0 1 74 4 8 100 100 100 39 5
0 44 100 31 5 5 5 1 0 0 0 6 23 51 6 0 0 0 0 0 0 0 0 0 0 5 5 0 0 0 0 3 5 2 27 10 7 2 0 5 2 4 13 22 57